Regional Weather Roundup
Issued by NWS

Home | Current Version | Previous Version | Graphics & Text | Print | Product List | Glossary Off
Versions: 1 2 3 4 5 6 7 8 9 10 11 12 13 14 15 16 17 18 19 20 21 22 23 24 25 26 27 28 29 30 31 32 33 34 35 36 37 38 39 40 41 42 43 44 45 46 47 48 49 50

000
ASUS43 KMPX 271901
RWRMN
WEATHER ROUNDUP FOR MINNESOTA
NATIONAL WEATHER SERVICE TWIN CITIES/CHANHASSEN MN
200 PM CDT FRI MAR 27 2015


NOTE: "FAIR" INDICATES FEW OR NO CLOUDS BELOW 12,000 FEET WITH NO
SIGNIFICANT WEATHER AND/OR OBSTRUCTIONS TO VISIBILITY. N/A MEANS
CURRENT SKY AND/OR WEATHER CONDITIONS ARE NOT AVAILABLE.

MNZ060>063-068>070-272000-
   Twin Cities Metro

CITY           SKY/WX    TMP DP  RH WIND       PRES   REMARKS
TWIN CITIES    FAIR      33   0  24 CALM      30.22F
ST PAUL        FAIR      33   0  24 VRB3      30.24F
CRYSTAL        FAIR      34   1  24 N5        30.21F WCI  30
LAKEVILLE      FAIR      28   7  40 S5        30.22F WCI  23
EDEN PRAIRIE   FAIR      32   5  32 W6        30.21F WCI  26
SOUTH ST PAUL  FAIR      33   2  26 E3        30.22F
LAKE ELMO      FAIR      32   5  32 SW6       30.22F WCI  26
$$
MNZ001>005-007-008-013>017-022>024-027-028-272000-
   Northwest Minnesota

CITY           SKY/WX    TMP DP  RH WIND       PRES   REMARKS
BEMIDJI        FAIR      32   3  28 CALM      30.13F
HALLOCK        FAIR      30  16  55 S15       30.12F WCI  19
ROSEAU         FAIR      30  10  43 S8        30.14F WCI  23
WARROAD        FAIR      30  10  43 S6        30.15S WCI  24
THIEF RVR FALL PTSUNNY   30   9  40 S13       30.13F WCI  20
CROOKSTON      FAIR      32   7  34 S15       30.14F WCI  22
FOSSTON        FAIR      34   7  32 SW12      30.14F WCI  25
DETROIT LAKES  FAIR      32   5  32 S9        30.14F WCI  24
MOORHEAD       FAIR      34   1  25 S12       30.15F WCI  25
PARK RAPIDS    FAIR      33   3  28 SE5       30.12F WCI  29
MAHNOMEN       FAIR      32   7  35 S9        30.14F WCI  24
$$
MNZ006-009>011-018-025>026-272000-
   North Central Minnesota

CITY           SKY/WX    TMP DP  RH WIND       PRES   REMARKS
BAUDETTE       FAIR      32   8  36 S7        30.13F WCI  26
FLAG ISLAND    FAIR      25  10  54 SE12      30.14F WCI  14
INTL FALLS     FAIR      31   7  36 VRB6      30.15F WCI  25
WASKISH        FAIR      28  10  47 CALM      30.15F
BIG FORK       FAIR      34   3  27 SW5       30.14F WCI  30
LONGVILLE      FAIR      32   0  25 SE8       30.14F WCI  25
GRAND RAPIDS   FAIR      30   1  29 SW5       30.14F WCI  25
ORR            FAIR      30   0  27 SE5       30.12F WCI  25
COOK           FAIR      30   1  29 SE5       30.15F WCI  25
WALKER         FAIR      29   4  34 E6        30.14F WCI  23
$$
MNZ012-019>021-037-272000-
   Northeast Minnesota

CITY           SKY/WX    TMP DP  RH WIND       PRES   REMARKS
DULUTH         FAIR      28   7  41 S8        30.16F WCI  20
ELY            FAIR      28  -6  22 SW5       30.15F WCI  23
HIBBING        FAIR      31   0  26 VRB5      30.14F WCI  26
EVELETH        FAIR      32   0  25 SE5       30.15F WCI  27
DULUTH HARBOR  FAIR      28  12  50 CALM      30.25F
TWO HARBORS    FAIR      28  16  59 SE7       30.19F WCI  21
SILVER BAY     FAIR      27  10  50 SE8       30.19F WCI  18
GRAND MARAIS     N/A     20   7  57 S6        30.26F WCI  12
G MARAIS ARPRT FAIR      19   0  42 S7        30.15S WCI  10
$$
MNZ029>031-032-039>041-046>048-054>057-064-272000-
   West Central Minnesota

CITY           SKY/WX    TMP DP  RH WIND       PRES   REMARKS
FERGUS FALLS   FAIR      30   1  29 S10       30.18F WCI  21
WHEATON        FAIR      30  14  51 S6        30.18F WCI  24
MORRIS         FAIR      30  12  47 S9        30.16F WCI  22
ALEXANDRIA     FAIR      30   6  36 SW9       30.16F WCI  22
ELBOW LAKE     FAIR      31   9  39 S10       30.16F WCI  23
WADENA         FAIR      32   7  34 SE6       30.14F WCI  26
GLENWOOD       FAIR      32  10  40 S10       30.17F WCI  24
APPLETON       FAIR      36   5  27 S3        30.17F
BENSON         FAIR      34  10  37 S7        30.18F WCI  28
ORTONVILLE     FAIR      36   9  32 S7        30.15F
MADISON        FAIR      36   5  27 S10       30.17F
WILLMAR        FAIR      30  10  43 S8        30.20F WCI  23
$$
MNZ033>034-036-042>043-049>051-058-059-272000-
   Central Minnesota

CITY           SKY/WX    TMP DP  RH WIND       PRES   REMARKS
ST CLOUD       FAIR      31   1  28 S6        30.19F WCI  25
SAUK CENTRE    FAIR      31   8  38 S5        30.18F WCI  26
PAYNESVILLE    FAIR      27   7  43 S6        30.20F WCI  20
AITKIN         FAIR      34  -2  21 SE6       30.15F WCI  29
PINE RIVER     FAIR      30   7  37 S8        30.17F WCI  23
BRAINERD       FAIR      31   0  26 S6        30.16F WCI  25
STAPLES        FAIR      32   0  25 SW7       30.15F WCI  26
LONG PRAIRIE   FAIR      32   7  34 S6        30.16F WCI  26
LITTLE FALLS   FAIR      32   0  25 S6        30.18F WCI  26
LITCHFIELD     FAIR      30   9  40 CALM      30.21F
MAPLE LAKE     FAIR      33   8  34 CALM      30.21F
$$
MNZ037-044-045-052-053-272000-
   East Central Minnesota

CITY           SKY/WX    TMP DP  RH WIND       PRES   REMARKS
PRINCETON      FAIR      34   0  23 CALM      30.21F
MORA           FAIR      32   3  29 CALM      30.22F
CAMBRIDGE      FAIR      34  12  40 CALM      30.19F
RUSH CITY      FAIR      32   6  33 CALM      30.21F
MOOSE LAKE     FAIR      32   3  29 CALM      30.16F
HINCKLEY       FAIR      32   5  32 E5        30.20F WCI  27
CLOQUET        FAIR      30  -2  24 CALM      30.16F
MCGREGOR       FAIR      32   3  29 SW5       30.17F WCI  27
$$
MNZ071>073-080-081-089-090-097-098-272000-
   Southwest Minnesota

CITY           SKY/WX    TMP DP  RH WIND       PRES   REMARKS
MONTEVIDEO     FAIR      36  14  41 S3        30.19F
GRANITE FALLS  FAIR      33  11  39 S6        30.21F WCI  27
CANBY          PTSUNNY   35   4  27 SW7       30.17F WCI  29
MARSHALL       FAIR      34   5  29 S5        30.18F WCI  30
REDWOOD FALLS  FAIR      32  11  41 SE7       30.20F WCI  26
OLIVIA         FAIR      30  14  51 SE6       30.20F WCI  24
PIPESTONE      FAIR      32   7  34 SW8       30.14F WCI  25
WINDOM         FAIR      36   7  30 S6        30.18F
WORTHINGTON    FAIR      32   3  29 SW6       30.18F WCI  26
JACKSON        FAIR      34   7  32 CALM      30.19F
TRACY          FAIR      34  10  36 S6        30.18F WCI  29
SLAYTON        FAIR      32  -1  24 CALM      30.16F
$$
MNZ065>067-074>077-082>085-091>093-272000-
   South Central Minnesota

CITY           SKY/WX    TMP DP  RH WIND       PRES   REMARKS
MANKATO        FAIR      30   7  37 NE3       30.23F
NEW ULM        FAIR      34  10  37 S5        30.21F WCI  30
ST JAMES       FAIR      34   9  35 CALM      30.22F
FAIRMONT       FAIR      36   7  30 SW3       30.20F
GLENCOE        FAIR      30   8  39 S5        30.22F WCI  25
FARIBAULT      FAIR      30   7  37 N6        30.23F WCI  24
OWATONNA       FAIR      27   7  43 CALM      30.22F
WASECA         FAIR      30  12  47 N5        30.24F WCI  25
ALBERT LEA     FAIR      30  10  43 N9        30.21F WCI  22
$$
MNZ078>079-086>088-094>096-272000-
   Southeast Minnesota

CITY           SKY/WX    TMP DP  RH WIND       PRES   REMARKS
ROCHESTER      FAIR      27   8  44 NW5       30.21F WCI  22
RED WING       FAIR      34   3  27 W6        30.22F WCI  29
STANTON        FAIR      29   4  35 CALM      30.22F
DODGE CENTER   FAIR      27   9  46 CALM      30.21F
WINONA         FAIR      34  12  40 CALM      30.23F
AUSTIN         FAIR      27   9  46 NE3       30.21F
PRESTON        FAIR      26   7  45 W6        30.21F WCI  19
$$
ABBREVIATIONS USED IN REMARKS
   TC - TEMPERATURES IN CELSIUS
  WCI - WIND CHILL INDEX
   HX - HEAT INDEX
  VSB - VISIBILITY
$$



USA.gov is the U.S. government's official web portal to all federal, state and local government web resources and services.